| time (UTC) | temp C | wind direction | speed KPH | gust KPH | rain 1hr cm | rain 24hr cm | rain mn cm | humidity % | barometer mb |
| 20260506032838 | 14 | 283 | 1.6 | 1.6 | 0.00 | 0.00 | 0.00 | 45 | 1016.6 |
| 20260506032036 | 14 | 83 | 3.2 | 3.2 | 0.00 | 0.00 | 0.00 | 45 | 1016.4 |
| 20260506031634 | 15 | 83 | 1.6 | 3.2 | 0.00 | 0.00 | 0.00 | 45 | 1016.3 |
| 20260506030833 | 15 | 27 | 1.6 | 1.6 | 0.00 | 0.00 | 0.00 | 44 | 1016.1 |
| 20260506030431 | 15 | 315 | 0.0 | 1.6 | 0.00 | 0.00 | 0.00 | 43 | 1016.1 |
| 20260506030032 | 15 | 277 | 0.0 | 4.8 | 0.00 | 0.00 | 0.00 | 43 | 1016.0 |
| 20260506025628 | 15 | 135 | 3.2 | 4.8 | 0.00 | 0.00 | 0.00 | 43 | 1016.0 |
| 20260506025226 | 15 | 135 | 3.2 | 4.8 | 0.00 | 0.00 | 0.00 | 42 | 1016.0 |
| 20260506024825 | 15 | 130 | 4.8 | 8.0 | 0.00 | 0.00 | 0.00 | 42 | 1015.9 |
| 20260506024424 | 15 | 108 | 4.8 | 9.7 | 0.00 | 0.00 | 0.00 | 42 | 1015.7 |
| 20260506024023 | 15 | 83 | 8.0 | 12.9 | 0.00 | 0.00 | 0.00 | 41 | 1015.8 |
| 20260506022824 | 16 | 135 | 1.6 | 4.8 | 0.00 | 0.00 | 0.00 | 41 | 1015.7 |
| 20260506022417 | 16 | 85 | 4.8 | 4.8 | 0.00 | 0.00 | 0.00 | 40 | 1015.5 |
| 20260506022020 | 16 | 135 | 4.8 | 8.0 | 0.00 | 0.00 | 0.00 | 40 | 1015.6 |
| 20260506021615 | 16 | 128 | 8.0 | 9.7 | 0.00 | 0.00 | 0.00 | 40 | 1015.4 |
| 20260506021214 | 16 | 85 | 8.0 | 8.0 | 0.00 | 0.00 | 0.00 | 40 | 1015.4 |
| 20260506020813 | 16 | 135 | 6.4 | 6.4 | 0.00 | 0.00 | 0.00 | 39 | 1015.3 |
| 20260506020411 | 16 | 87 | 4.8 | 8.0 | 0.00 | 0.00 | 0.00 | 39 | 1015.4 |
| 20260506015207 | 16 | 112 | 4.8 | 9.7 | 0.00 | 0.00 | 0.00 | 38 | 1015.3 |
| 20260506014806 | 17 | 135 | 6.4 | 6.4 | 0.00 | 0.00 | 0.00 | 38 | 1015.3 |
| 20260506014405 | 17 | 155 | 4.8 | 9.7 | 0.00 | 0.00 | 0.00 | 38 | 1015.3 |
| 20260506014003 | 17 | 114 | 6.4 | 11.3 | 0.00 | 0.00 | 0.00 | 37 | 1015.2 |
| 20260506013201 | 17 | 117 | 6.4 | 9.7 | 0.00 | 0.00 | 0.00 | 37 | 1015.1 |
| 20260506012359 | 18 | 110 | 6.4 | 9.7 | 0.00 | 0.00 | 0.00 | 37 | 1015.1 |
| 20260506011957 | 18 | 148 | 6.4 | 9.7 | 0.00 | 0.00 | 0.00 | 36 | 1015.1 |
| 20260506011556 | 18 | 123 | 1.6 | 9.7 | 0.00 | 0.00 | 0.00 | 36 | 1015.0 |
| 20260506011154 | 18 | 157 | 4.8 | 8.0 | 0.00 | 0.00 | 0.00 | 36 | 1015.1 |
| 20260506010753 | 18 | 144 | 6.4 | 11.3 | 0.00 | 0.00 | 0.00 | 36 | 1015.1 |
| 20260506005951 | 18 | 132 | 9.7 | 9.7 | 0.00 | 0.00 | 0.00 | 36 | 1015.1 |
| 20260506005550 | 18 | 123 | 4.8 | 11.3 | 0.00 | 0.00 | 0.00 | 35 | 1015.1 |
| 20260506004821 | 19 | 135 | 4.8 | 8.0 | 0.00 | 0.00 | 0.00 | 35 | 1015.0 |
| 20260506004747 | 19 | 135 | 4.8 | 8.0 | 0.00 | 0.00 | 0.00 | 35 | 1015.0 |
| 20260506003543 | 20 | 183 | 1.6 | 4.8 | 0.00 | 0.00 | 0.00 | 35 | 1014.9 |
| 20260506003142 | 20 | 213 | 3.2 | 6.4 | 0.00 | 0.00 | 0.00 | 35 | 1014.9 |
| 20260506002339 | 20 | 180 | 4.8 | 4.8 | 0.00 | 0.00 | 0.00 | 34 | 1014.9 |
| 20260506001135 | 20 | 185 | 1.6 | 8.0 | 0.00 | 0.00 | 0.00 | 34 | 1014.7 |
| 20260506000734 | 20 | 195 | 1.6 | 11.3 | 0.00 | 0.00 | 0.00 | 34 | 1014.7 |
| 20260505235931 | 20 | 135 | 1.6 | 9.7 | 0.00 | 0.00 | 0.00 | 33 | 1014.7 |
| 20260505235532 | 20 | 193 | 1.6 | 9.7 | 0.00 | 0.00 | 0.00 | 33 | 1014.7 |
| 20260505234728 | 20 | 184 | 1.6 | 4.8 | 0.00 | 0.00 | 0.00 | 33 | 1014.8 |
| 20260505233929 | 20 | 139 | 3.2 | 11.3 | 0.00 | 0.00 | 0.00 | 32 | 1014.8 |
| 20260505233123 | 20 | 171 | 9.7 | 9.7 | 0.00 | 0.00 | 0.00 | 32 | 1015.0 |
| 20260505232721 | 20 | 171 | 6.4 | 14.5 | 0.00 | 0.00 | 0.00 | 31 | 1014.8 |
| 20260505232320 | 20 | 220 | 9.7 | 16.1 | 0.00 | 0.00 | 0.00 | 31 | 1014.8 |
| 20260505231920 | 20 | 182 | 6.4 | 14.5 | 0.00 | 0.00 | 0.00 | 31 | 1014.9 |
| 20260505231518 | 21 | 183 | 11.3 | 19.3 | 0.00 | 0.00 | 0.00 | 31 | 1014.7 |
| 20260505231116 | 21 | 211 | 3.2 | 19.3 | 0.00 | 0.00 | 0.00 | 31 | 1014.7 |
| 20260505230715 | 21 | 186 | 16.1 | 19.3 | 0.00 | 0.00 | 0.00 | 31 | 1014.8 |
| 20260505230313 | 21 | 209 | 6.4 | 20.9 | 0.00 | 0.00 | 0.00 | 31 | 1014.9 |
| 20260505225912 | 22 | 180 | 12.9 | 17.7 | 0.00 | 0.00 | 0.00 | 31 | 1014.9 |
| 20260505225109 | 22 | 199 | 8.0 | 16.1 | 0.00 | 0.00 | 0.00 | 31 | 1014.9 |
| 20260505224708 | 21 | 210 | 16.1 | 22.5 | 0.00 | 0.00 | 0.00 | 30 | 1014.9 |
| 20260505224307 | 21 | 182 | 12.9 | 19.3 | 0.00 | 0.00 | 0.00 | 30 | 1015.0 |
| 20260505223906 | 21 | 198 | 12.9 | 16.1 | 0.00 | 0.00 | 0.00 | 30 | 1015.0 |
| 20260505223103 | 21 | 232 | 4.8 | 11.3 | 0.00 | 0.00 | 0.00 | 29 | 1015.0 |
| 20260505222701 | 21 | 202 | 6.4 | 14.5 | 0.00 | 0.00 | 0.00 | 28 | 1015.1 |
| 20260505222300 | 21 | 196 | 4.8 | 14.5 | 0.00 | 0.00 | 0.00 | 28 | 1015.1 |
| 20260505221902 | 21 | 142 | 6.4 | 17.7 | 0.00 | 0.00 | 0.00 | 28 | 1015.1 |
| 20260505221058 | 22 | 193 | 12.9 | 17.7 | 0.00 | 0.00 | 0.00 | 27 | 1015.1 |
| 20260505220656 | 23 | 45 | 0.0 | 14.5 | 0.00 | 0.00 | 0.00 | 27 | 1015.0 |
| 20260505220254 | 23 | 205 | 6.4 | 11.3 | 0.00 | 0.00 | 0.00 | 27 | 1015.1 |
| 20260505215853 | 23 | 153 | 3.2 | 8.0 | 0.00 | 0.00 | 0.00 | 27 | 1015.1 |
| 20260505215451 | 24 | 212 | 4.8 | 19.3 | 0.00 | 0.00 | 0.00 | 27 | 1015.1 |
| 20260505215050 | 24 | 172 | 4.8 | 11.3 | 0.00 | 0.00 | 0.00 | 27 | 1015.2 |
| 20260505214649 | 25 | 292 | 4.8 | 11.3 | 0.00 | 0.00 | 0.00 | 27 | 1015.2 |
| 20260505213447 | 24 | 244 | 4.8 | 6.4 | 0.00 | 0.00 | 0.00 | 27 | 1015.2 |
| 20260505212643 | 23 | 165 | 6.4 | 8.0 | 0.00 | 0.00 | 0.00 | 26 | 1015.2 |
| 20260505212242 | 24 | 173 | 11.3 | 11.3 | 0.00 | 0.00 | 0.00 | 27 | 1015.2 |
| 20260505211438 | 24 | 228 | 3.2 | 8.0 | 0.00 | 0.00 | 0.00 | 27 | 1015.3 |
| 20260505211037 | 24 | 180 | 8.0 | 14.5 | 0.00 | 0.00 | 0.00 | 28 | 1015.3 |
| 20260505210236 | 25 | 208 | 8.0 | 9.7 | 0.00 | 0.00 | 0.00 | 28 | 1015.2 |
| 20260505205433 | 24 | 155 | 6.4 | 16.1 | 0.00 | 0.00 | 0.00 | 29 | 1015.3 |
| 20260505205030 | 23 | 194 | 9.7 | 12.9 | 0.00 | 0.00 | 0.00 | 29 | 1015.3 |
| 20260505204629 | 22 | 180 | 8.0 | 16.1 | 0.00 | 0.00 | 0.00 | 29 | 1015.3 |
| 20260505204234 | 22 | 90 | 3.2 | 12.9 | 0.00 | 0.00 | 0.00 | 28 | 1015.3 |
| 20260505203426 | 22 | 207 | 12.9 | 12.9 | 0.00 | 0.00 | 0.00 | 27 | 1015.2 |
| 20260505202623 | 22 | 153 | 3.2 | 8.0 | 0.00 | 0.00 | 0.00 | 27 | 1015.2 |
| 20260505202222 | 23 | 210 | 3.2 | 6.4 | 0.00 | 0.00 | 0.00 | 27 | 1015.3 |
| 20260505201821 | 23 | 195 | 3.2 | 12.9 | 0.00 | 0.00 | 0.00 | 28 | 1015.2 |
| 20260505201419 | 23 | 209 | 9.7 | 16.1 | 0.00 | 0.00 | 0.00 | 28 | 1015.2 |
| 20260505201018 | 22 | 198 | 3.2 | 12.9 | 0.00 | 0.00 | 0.00 | 28 | 1015.3 |
| 20260505200617 | 22 | 189 | 11.3 | 11.3 | 0.00 | 0.00 | 0.00 | 28 | 1015.3 |
| 20260505200215 | 22 | 175 | 4.8 | 4.8 | 0.00 | 0.00 | 0.00 | 27 | 1015.2 |
| 20260505195816 | 22 | 162 | 3.2 | 11.3 | 0.00 | 0.00 | 0.00 | 27 | 1015.2 |
| 20260505195414 | 21 | 180 | 4.8 | 12.9 | 0.00 | 0.00 | 0.00 | 26 | 1015.3 |
| 20260505195012 | 21 | 135 | 12.9 | 16.1 | 0.00 | 0.00 | 0.00 | 27 | 1015.3 |
| 20260505194611 | 23 | 177 | 4.8 | 9.7 | 0.00 | 0.00 | 0.00 | 28 | 1015.4 |
| 20260505194209 | 23 | 186 | 8.0 | 11.3 | 0.00 | 0.00 | 0.00 | 29 | 1015.3 |
| 20260505193807 | 23 | 135 | 11.3 | 16.1 | 0.00 | 0.00 | 0.00 | 29 | 1015.4 |
| 20260505192605 | 23 | 193 | 8.0 | 11.3 | 0.00 | 0.00 | 0.00 | 29 | 1015.5 |
| 20260505191802 | 24 | 135 | 14.5 | 16.1 | 0.00 | 0.00 | 0.00 | 30 | 1015.5 |
| 20260505191402 | 26 | 155 | 6.4 | 11.3 | 0.00 | 0.00 | 0.00 | 30 | 1015.5 |
| 20260505191400 | 26 | 155 | 6.4 | 11.3 | 0.00 | 0.00 | 0.00 | 30 | 1015.5 |
| 20260505190557 | 25 | 225 | 3.2 | 4.8 | 0.00 | 0.00 | 0.00 | 30 | 1015.5 |
| 20260505190156 | 25 | 197 | 0.0 | 8.0 | 0.00 | 0.00 | 0.00 | 30 | 1015.5 |
| 20260505185830 | 25 | 83 | 1.6 | 11.3 | 0.00 | 0.00 | 0.00 | 31 | 1015.5 |
| 20260505185756 | 25 | 83 | 1.6 | 11.3 | 0.00 | 0.00 | 0.00 | 31 | 1015.5 |
| 20260505185354 | 26 | 278 | 1.6 | 9.7 | 0.00 | 0.00 | 0.00 | 32 | 1015.5 |
| 20260505184551 | 25 | 183 | 3.2 | 6.4 | 0.00 | 0.00 | 0.00 | 33 | 1015.6 |
| 20260505183749 | 24 | 42 | 0.0 | 3.2 | 0.00 | 0.00 | 0.00 | 34 | 1015.6 |
| 20260505182947 | 22 | 168 | 3.2 | 6.4 | 0.00 | 0.00 | 0.00 | 35 | 1015.6 |
| 20260505182544 | 22 | 337 | 1.6 | 6.4 | 0.00 | 0.00 | 0.00 | 35 | 1015.6 |
| 20260505182143 | 21 | 324 | 3.2 | 8.0 | 0.00 | 0.00 | 0.00 | 36 | 1015.7 |
| 20260505181742 | 20 | 270 | 8.0 | 8.0 | 0.00 | 0.00 | 0.00 | 36 | 1015.7 |
| 20260505181341 | 20 | 42 | 6.4 | 6.4 | 0.00 | 0.00 | 0.00 | 37 | 1015.7 |
| 20260505180942 | 20 | 307 | 3.2 | 4.8 | 0.00 | 0.00 | 0.00 | 37 | 1015.7 |
| 20260505180539 | 19 | 348 | 1.6 | 9.7 | 0.00 | 0.00 | 0.00 | 37 | 1015.7 |
| 20260505180140 | 19 | 45 | 0.0 | 1.6 | 0.00 | 0.00 | 0.00 | 38 | 1015.8 |
| 20260505175742 | 19 | 330 | 1.6 | 9.7 | 0.00 | 0.00 | 0.00 | 38 | 1015.7 |
| 20260505175334 | 18 | 30 | 6.4 | 6.4 | 0.00 | 0.00 | 0.00 | 39 | 1015.7 |
| 20260505174937 | 18 | 157 | 0.0 | 8.0 | 0.00 | 0.00 | 0.00 | 39 | 1015.6 |
| 20260505174540 | 18 | 40 | 0.0 | 9.7 | 0.00 | 0.00 | 0.00 | 39 | 1015.6 |
| 20260505173730 | 17 | 0 | 1.6 | 4.8 | 0.00 | 0.00 | 0.00 | 40 | 1015.6 |
| 20260505173328 | 17 | 45 | 4.8 | 8.0 | 0.00 | 0.00 | 0.00 | 40 | 1015.6 |
| 20260505172928 | 17 | 28 | 6.4 | 6.4 | 0.00 | 0.00 | 0.00 | 40 | 1015.4 |
| 20260505172602 | 17 | 310 | 4.8 | 9.7 | 0.00 | 0.00 | 0.00 | 41 | 1015.5 |
| 20260505172527 | 17 | 310 | 4.8 | 9.7 | 0.00 | 0.00 | 0.00 | 41 | 1015.5 |
| 20260505171755 | 17 | 306 | 1.6 | 4.8 | 0.00 | 0.00 | 0.00 | 41 | 1015.5 |
| 20260505171723 | 17 | 306 | 1.6 | 4.8 | 0.00 | 0.00 | 0.00 | 41 | 1015.5 |
| 20260505165717 | 16 | 39 | 6.4 | 12.9 | 0.00 | 0.00 | 0.00 | 42 | 1015.4 |
| 20260505165321 | 16 | 322 | 9.7 | 9.7 | 0.00 | 0.00 | 0.00 | 42 | 1015.4 |
| 20260505164914 | 17 | 339 | 4.8 | 6.4 | 0.00 | 0.00 | 0.00 | 42 | 1015.3 |
| 20260505164116 | 17 | 330 | 1.6 | 4.8 | 0.00 | 0.00 | 0.00 | 43 | 1015.3 |
| 20260505162947 | 16 | 16 | 3.2 | 6.4 | 0.00 | 0.00 | 0.00 | 43 | 1015.3 |
| 20260505162912 | 16 | 16 | 3.2 | 6.4 | 0.00 | 0.00 | 0.00 | 43 | 1015.3 |
| 20260505162506 | 17 | 40 | 6.4 | 6.4 | 0.00 | 0.00 | 0.00 | 43 | 1015.2 |
| 20260505162107 | 16 | 45 | 1.6 | 4.8 | 0.00 | 0.00 | 0.00 | 44 | 1015.2 |
| 20260505161707 | 16 | 45 | 1.6 | 6.4 | 0.00 | 0.00 | 0.00 | 44 | 1015.1 |
| 20260505161302 | 16 | 33 | 3.2 | 8.0 | 0.00 | 0.00 | 0.00 | 44 | 1015.2 |
| 20260505160908 | 16 | 310 | 3.2 | 6.4 | 0.00 | 0.00 | 0.00 | 45 | 1015.1 |
| 20260505160500 | 16 | 355 | 4.8 | 9.7 | 0.00 | 0.00 | 0.00 | 45 | 1015.1 |
| 20260505153243 | 15 | 45 | 1.6 | 4.8 | 0.00 | 0.00 | 0.00 | 49 | 1015.1 |
| 20260505152930 | 15 | 20 | 4.8 | 6.4 | 0.00 | 0.00 | 0.00 | 49 | 1015.2 |
| 20260505152842 | 15 | 20 | 4.8 | 6.4 | 0.00 | 0.00 | 0.00 | 49 | 1015.2 |
| 20260505152442 | 15 | 339 | 6.4 | 8.0 | 0.00 | 0.00 | 0.00 | 50 | 1015.0 |
| 20260505151639 | 15 | 36 | 8.0 | 11.3 | 0.00 | 0.00 | 0.00 | 51 | 1015.1 |
| 20260505151240 | 15 | 28 | 6.4 | 8.0 | 0.00 | 0.00 | 0.00 | 52 | 1015.1 |
| 20260505150842 | 15 | 20 | 6.4 | 9.7 | 0.00 | 0.00 | 0.00 | 52 | 1015.0 |
| 20260505150434 | 15 | 11 | 4.8 | 4.8 | 0.00 | 0.00 | 0.00 | 52 | 1014.9 |
| 20260505140418 | 11 | 45 | 0.0 | 0.0 | 0.00 | 0.00 | 0.00 | 57 | 1014.6 |
| 20260505124751 | 8 | 297 | 1.6 | 1.6 | 0.00 | 0.00 | 0.00 | 56 | 1014.5 |
| 20260505124351 | 8 | 306 | 0.0 | 0.0 | 0.00 | 0.00 | 0.00 | 56 | 1014.4 |
| 20260505123951 | -17 | 315 | 0.0 | 0.0 | 0.00 | 0.00 | 0.00 | 56 | 1014.4 |
| 20260505123655 | 9 | 312 | 0.0 | 0.0 | 0.00 | 0.00 | 0.00 | 56 | 1014.5 |
| 20260505123548 | 9 | 312 | 0.0 | 0.0 | 0.00 | 0.00 | 0.00 | 56 | 1014.5 |
| 20260505123148 | 9 | 270 | 0.0 | 0.0 | 0.00 | 0.00 | 0.00 | 56 | 1014.5 |
| 20260505122745 | 9 | 310 | 0.0 | 1.6 | 0.00 | 0.00 | 0.00 | 56 | 1014.5 |
| 20260505122343 | 9 | 315 | 0.0 | 0.0 | 0.00 | 0.00 | 0.00 | 56 | 1014.5 |
| 20260505121942 | 9 | 335 | 0.0 | 1.6 | 0.00 | 0.00 | 0.00 | 56 | 1014.4 |
| 20260505121140 | 9 | 279 | 0.0 | 0.0 | 0.00 | 0.00 | 0.00 | 56 | 1014.5 |
| 20260505120738 | 9 | 275 | 0.0 | 1.6 | 0.00 | 0.00 | 0.00 | 55 | 1014.5 |
| 20260505120337 | 9 | 229 | 0.0 | 1.6 | 0.00 | 0.00 | 0.00 | 55 | 1014.5 |
| 20260505115935 | 9 | 40 | 0.0 | 0.0 | 0.00 | 0.00 | 0.00 | 55 | 1014.5 |
| 20260505115534 | 9 | 310 | 0.0 | 0.0 | 0.00 | 0.00 | 0.00 | 55 | 1014.5 |
| 20260505115133 | 10 | 310 | 0.0 | 0.0 | 0.00 | 0.00 | 0.00 | 55 | 1014.5 |
| 20260505114732 | 10 | 279 | 0.0 | 0.0 | 0.00 | 0.00 | 0.00 | 54 | 1014.5 |
| 20260505114331 | 10 | 270 | 0.0 | 0.0 | 0.00 | 0.00 | 0.00 | 54 | 1014.6 |
| 20260505111521 | 10 | 342 | 1.6 | 1.6 | 0.00 | 0.00 | 0.00 | 53 | 1014.4 |
| 20260505111120 | 11 | 310 | 0.0 | 0.0 | 0.00 | 0.00 | 0.00 | 53 | 1014.6 |
| 20260505110718 | 11 | 180 | 0.0 | 0.0 | 0.00 | 0.00 | 0.00 | 53 | 1014.6 |
| 20260505101504 | 12 | 135 | 0.0 | 0.0 | 0.00 | 0.00 | 0.00 | 52 | 1014.7 |
| 20260505101101 | 12 | 270 | 0.0 | 0.0 | 0.00 | 0.00 | 0.00 | 52 | 1014.6 |
| 20260505100700 | 12 | 270 | 0.0 | 0.0 | 0.00 | 0.00 | 0.00 | 52 | 1014.8 |
| 20260505100259 | 12 | 270 | 0.0 | 0.0 | 0.00 | 0.00 | 0.00 | 52 | 1014.7 |
| 20260505095858 | 12 | 274 | 0.0 | 1.6 | 0.00 | 0.00 | 0.00 | 52 | 1014.8 |
| 20260505095458 | 12 | 333 | 0.0 | 1.6 | 0.00 | 0.00 | 0.00 | 52 | 1014.7 |
| 20260505094653 | 12 | 274 | 0.0 | 0.0 | 0.00 | 0.00 | 0.00 | 52 | 1014.8 |
| 20260505094253 | 12 | 244 | 0.0 | 1.6 | 0.00 | 0.00 | 0.00 | 52 | 1014.8 |
| 20260505093449 | 12 | 252 | 1.6 | 3.2 | 0.00 | 0.00 | 0.00 | 52 | 1015.0 |
| 20260505093048 | 12 | 274 | 1.6 | 4.8 | 0.00 | 0.00 | 0.00 | 52 | 1014.9 |
| 20260505092245 | 13 | 283 | 3.2 | 6.4 | 0.00 | 0.00 | 0.00 | 52 | 1015.0 |
| 20260505091443 | 13 | 42 | 1.6 | 1.6 | 0.00 | 0.00 | 0.00 | 52 | 1015.2 |
| 20260505091041 | 13 | 283 | 1.6 | 3.2 | 0.00 | 0.00 | 0.00 | 52 | 1015.2 |
| 20260505090640 | 13 | 279 | 1.6 | 3.2 | 0.00 | 0.00 | 0.00 | 52 | 1015.3 |
| 20260505090239 | 13 | 312 | 1.6 | 3.2 | 0.00 | 0.00 | 0.00 | 51 | 1015.2 |
| 20260505085035 | 13 | 274 | 4.8 | 6.4 | 0.00 | 0.00 | 0.00 | 51 | 1015.5 |
| 20260505084633 | 13 | 265 | 3.2 | 6.4 | 0.00 | 0.00 | 0.00 | 51 | 1015.5 |
| 20260505084232 | 13 | 306 | 4.8 | 6.4 | 0.00 | 0.00 | 0.00 | 51 | 1015.4 |
| 20260505083831 | 13 | 294 | 3.2 | 4.8 | 0.00 | 0.00 | 0.00 | 51 | 1015.4 |
| 20260505083431 | 13 | 288 | 4.8 | 6.4 | 0.00 | 0.00 | 0.00 | 51 | 1015.5 |
| 20260505083029 | 13 | 274 | 4.8 | 8.0 | 0.00 | 0.00 | 0.00 | 51 | 1015.6 |
| 20260505082628 | 13 | 279 | 6.4 | 8.0 | 0.00 | 0.00 | 0.00 | 51 | 1015.6 |
| 20260505082226 | 13 | 320 | 8.0 | 8.0 | 0.00 | 0.00 | 0.00 | 51 | 1015.6 |
| 20260505081423 | 13 | 270 | 3.2 | 6.4 | 0.00 | 0.00 | 0.00 | 51 | 1015.6 |
| 20260505081022 | 13 | 279 | 4.8 | 8.0 | 0.00 | 0.00 | 0.00 | 51 | 1015.8 |
| 20260505080621 | 13 | 270 | 6.4 | 6.4 | 0.00 | 0.00 | 0.00 | 51 | 1015.8 |
| 20260505080220 | 13 | 297 | 4.8 | 6.4 | 0.00 | 0.00 | 0.00 | 51 | 1015.7 |
| 20260505075417 | 13 | 274 | 4.8 | 6.4 | 0.00 | 0.00 | 0.00 | 51 | 1015.7 |
| 20260505075016 | 13 | 312 | 1.6 | 4.8 | 0.00 | 0.00 | 0.00 | 51 | 1015.8 |
| 20260505073412 | 13 | 297 | 3.2 | 9.7 | 0.00 | 0.00 | 0.00 | 51 | 1015.8 |
| 20260505072608 | 13 | 301 | 6.4 | 6.4 | 0.00 | 0.00 | 0.00 | 51 | 1015.9 |
| 20260505072207 | 13 | 292 | 4.8 | 6.4 | 0.00 | 0.00 | 0.00 | 51 | 1016.0 |
| 20260505071806 | 13 | 297 | 3.2 | 4.8 | 0.00 | 0.00 | 0.00 | 51 | 1016.0 |
| 20260505071405 | 13 | 274 | 1.6 | 4.8 | 0.00 | 0.00 | 0.00 | 51 | 1015.9 |
| 20260505071003 | 13 | 330 | 0.0 | 4.8 | 0.00 | 0.00 | 0.00 | 51 | 1015.9 |
| 20260505070601 | 13 | 322 | 1.6 | 4.8 | 0.00 | 0.00 | 0.00 | 51 | 1016.0 |
| 20260505070200 | 13 | 288 | 3.2 | 4.8 | 0.00 | 0.00 | 0.00 | 51 | 1016.0 |
| 20260505065759 | 13 | 270 | 4.8 | 4.8 | 0.00 | 0.00 | 0.00 | 51 | 1016.1 |
| 20260505065358 | 13 | 301 | 1.6 | 4.8 | 0.00 | 0.00 | 0.00 | 51 | 1015.9 |
| 20260505064956 | 13 | 319 | 1.6 | 4.8 | 0.00 | 0.00 | 0.00 | 51 | 1015.9 |
| 20260505064555 | 13 | 292 | 3.2 | 4.8 | 0.00 | 0.00 | 0.00 | 51 | 1015.9 |
| 20260505064154 | 13 | 307 | 4.8 | 6.4 | 0.00 | 0.00 | 0.00 | 51 | 1016.0 |
| 20260505063753 | 13 | 299 | 1.6 | 8.0 | 0.00 | 0.00 | 0.00 | 50 | 1016.0 |
| 20260505063353 | 13 | 297 | 3.2 | 4.8 | 0.00 | 0.00 | 0.00 | 50 | 1016.0 |
| 20260505062549 | 13 | 352 | 1.6 | 3.2 | 0.00 | 0.00 | 0.00 | 50 | 1015.9 |
| 20260505062147 | 14 | 328 | 0.0 | 3.2 | 0.00 | 0.00 | 0.00 | 50 | 1016.0 |
| 20260505061751 | 14 | 305 | 0.0 | 3.2 | 0.00 | 0.00 | 0.00 | 50 | 1015.9 |
| 20260505060537 | 14 | 283 | 1.6 | 3.2 | 0.00 | 0.00 | 0.00 | 50 | 1015.9 |
| 20260505055735 | 14 | 288 | 3.2 | 4.8 | 0.00 | 0.00 | 0.00 | 50 | 1015.9 |
| 20260505055332 | 14 | 292 | 3.2 | 3.2 | 0.00 | 0.00 | 0.00 | 50 | 1015.9 |
| 20260505054132 | 14 | 265 | 1.6 | 1.6 | 0.00 | 0.00 | 0.00 | 49 | 1016.0 |
| 20260505053731 | 14 | 270 | 1.6 | 3.2 | 0.00 | 0.00 | 0.00 | 49 | 1016.0 |
| 20260505053326 | 14 | 279 | 3.2 | 4.8 | 0.00 | 0.00 | 0.00 | 49 | 1016.1 |
| 20260505052925 | 14 | 267 | 1.6 | 3.2 | 0.00 | 0.00 | 0.00 | 49 | 1015.9 |
| 20260505052524 | 14 | 310 | 1.6 | 3.2 | 0.00 | 0.00 | 0.00 | 49 | 1016.1 |
| 20260505052122 | 14 | 270 | 0.0 | 0.0 | 0.00 | 0.00 | 0.00 | 49 | 1016.0 |
| 20260505051721 | 14 | 303 | 0.0 | 1.6 | 0.00 | 0.00 | 0.00 | 49 | 1016.0 |
| 20260505050517 | 14 | 267 | 1.6 | 3.2 | 0.00 | 0.00 | 0.00 | 48 | 1016.1 |
| 20260505041709 | 15 | 175 | 3.2 | 6.4 | 0.00 | 0.00 | 0.00 | 46 | 1016.1 |
| 20260505040459 | 15 | 119 | 0.0 | 8.0 | 0.00 | 0.00 | 0.00 | 46 | 1016.1 |
| 20260505040058 | 15 | 221 | 4.8 | 9.7 | 0.00 | 0.00 | 0.00 | 46 | 1016.0 |
| 20260505035655 | 15 | 164 | 3.2 | 4.8 | 0.00 | 0.00 | 0.00 | 46 | 1016.0 |
| 20260505034853 | 15 | 115 | 3.2 | 8.0 | 0.00 | 0.00 | 0.00 | 45 | 1016.0 |
| 20260505034452 | 15 | 180 | 3.2 | 8.0 | 0.00 | 0.00 | 0.00 | 45 | 1016.0 |